COSMOS 2251 DEB, 35829

Orbit data source: Space-Track

COSMOS 2251 DEB, 35829 is space debris in LEO originally from a launch on Wed, 16 Jun 1993 UTC launched from the Plesetsk Missile And Space Complex (PKMTR). The debris from Iridium 33, an American commercial communications satellite, has been tracked extensively since its accidental collision with the defunct Russian satellite Cosmos 2251 in 2009. This event, occurring at high speed in low Earth orbit (LEO), generated thousands of pieces of space debris, significantly increasing the risk of further collisions. The Iridium 33 debris cloud has impacted space traffic management and orbital debris mitigation strategies, making it a subject of ongoing study in space situational awareness.

Loading next visibility...
Identifier
35829, 1993-036ATB
Orbit
LEO
Country
Flag of CISCIS
Related business
Manufacturer
Unknown
Mission
Spacecraft
Bus & Motor
Unknown
Mass
Unknown
Launch date (UTC)
1993-06-16 (33 years ago)
Launch vehicle
Unknown
Launch site
Plesetsk Missile And Space Complex (PKMTR)
Object type
Payload
Rocket body
Debris
Shape & HBR
Unknown shape, 0.1 m
Radar Cross Section
Small (<0.1 m²)

Expand to show TLE details & history
Last TLE update: 3 days ago

TLE from 3 days ago
0 COSMOS 2251 DEB
1 35829U 93036ATB 26205.17673497  .00014278  00000-0  18046-2 0  9990
2 35829  74.0235  18.7928 0008176  40.8518 319.3271 14.81863768910797
Epoch: 2026-07-24T04:14Z
TLE epoch observation values (Epoch: 2026-07-24T04:14:29.901Z)
Latitude
0.00003°
Longitude
13.2611°
Altitude
621.773 km
Speed
7.55 km/s
True Right ascension
01h 15m 10s
True Declination
0° 00' 00"
Sunlit
Object was in daylight at epoch
Visualization orbit readout
Latitude
Unknown
Longitude
Unknown
Altitude
Unknown
Speed
Unknown
Apparent Right ascension
Unknown
Apparent Declination
Unknown
Sunlit
N/A
Visualization observer readout
Local Sidereal Time
19:10:44
Azimuth
Unknown
Elevation
Unknown
Doppler factor
Unknown
Orbital elements
Apogee altitude
626.744 km
Perigee altitude
615.299 km
Semi-major axis
6,999.159 km
Eccentricity
0.00082
Inclination
74.0235°
RAAN
18.7928°
Arg. of periapsis
40.8518°
True anomaly
319.26599°
Mean anomaly
319.3271°
Eccentric anomaly
319.29655°
Mean motion
3.70659 °/min
Orbital period
97.12 mins
BSTAR
0.0018046

Documentation

Showing up to 5 results
|